Weather History for Lexington, KY

Change the Weather History Date:

Monday, December 12, 2011

  Actual Average Record
Temperature  
Mean Temperature 38 °F 36 °F  
Max Temperature 50 °F 45 °F 68 °F (1873)
Min Temperature 26 °F 29 °F -5 °F (1962)
Degree Days  
Heating Degree Days 27 28  
Month to date heating degree days 316 321  
Since 1 July heating degree days 1167 1208  
Cooling Degree Days 0 0  
Month to date cooling degree days 0 0  
Year to date cooling degree days 1306 1190  
Moisture  
Dew Point 25 °F    
Average Humidity 54    
Maximum Humidity 69    
Minimum Humidity 39    
Precipitation  
Precipitation 0.00 in 0.13 in 2.96 in (1949)
Month to date precipitation 2.15 1.59  
Year to date precipitation 64.07 42.83  
Snow  
Snow 0.00 in 0.10 in 2.40 in (2010)
Month to date snowfall T 0.7  
Since 1 July snowfall T 1.0  
Snow Depth 0.00 in    
Sea Level Pressure  
Sea Level Pressure 30.45 in    
Wind  
Wind Speed 4 mph (SSE)    
Max Wind Speed 10 mph    
Max Gust Speed 17 mph    
Visibility 10 miles    
Events      
T = Trace of Precipitation, MM = Missing Value Source: NWS Daily Summary

Daily Weather History Graph

Daily Weather History Graph

Search for Another Location

Airport:

Trip Planner

Search our weather history database for the weather conditions in past years. The results will help you decide how hot, cold, wet, or windy it might be!

Date:

Astronomy

Dec. 12, 2011 Rise Set
Actual Time 7:45 AM EST 5:19 PM EST
Civil Twilight 7:15 AM EST 5:48 PM EST
Nautical Twilight 6:42 AM EST 6:21 PM EST
Astronomical Twilight 6:10 AM EST 6:53 PM EST
Moon 7:28 PM EST (12/12) 9:16 AM EST (12/12)
Length of Visible Light 10h 32m
Length of Day
9h 34m
Waning Gibbous, 96% of the Moon is Illuminated
Dec 12
Waning Gibbous
Dec 17
Last Quarter
Dec 24
New
Jan 1
First Quarter
Jan 9
Full

Hourly Weather History & Observations

Time (EST) Temp. Windchill Dew Point Humidity Pressure Visibility Wind Dir Wind Speed Gust Speed Precip Events Conditions
12:54 AM 30.9 °F 25.2 °F 17.1 °F 57% 30.45 in 10.0 mi ESE 5.8 mph - N/A   Clear
1:54 AM 28.0 °F 21.7 °F 18.0 °F 66% 30.44 in 10.0 mi ESE 5.8 mph - N/A   Clear
2:54 AM 28.9 °F 22.8 °F 18.0 °F 64% 30.44 in 10.0 mi SE 5.8 mph - N/A   Clear
3:54 AM 28.9 °F 23.9 °F 18.0 °F 64% 30.44 in 10.0 mi SE 4.6 mph - N/A   Clear
4:54 AM 28.0 °F 21.7 °F 18.0 °F 66% 30.44 in 10.0 mi SE 5.8 mph - N/A   Clear
5:54 AM 28.0 °F 20.8 °F 18.0 °F 66% 30.45 in 10.0 mi SE 6.9 mph - N/A   Clear
6:54 AM 27.0 °F 19.5 °F 18.0 °F 69% 30.46 in 10.0 mi SSE 6.9 mph - N/A   Clear
7:54 AM 28.0 °F 20.8 °F 18.0 °F 66% 30.47 in 10.0 mi SE 6.9 mph - N/A   Clear
8:54 AM 30.9 °F 23.5 °F 21.0 °F 67% 30.48 in 10.0 mi SSE 8.1 mph - N/A   Clear
9:54 AM 36.0 °F 30.3 °F 23.0 °F 59% 30.49 in 10.0 mi SSE 6.9 mph - N/A   Clear
10:54 AM 42.1 °F 39.2 °F 26.1 °F 53% 30.49 in 10.0 mi South 4.6 mph - N/A   Clear
11:54 AM 46.9 °F - 27.0 °F 46% 30.48 in 10.0 mi Calm Calm - N/A   Clear
12:54 PM 48.0 °F - 28.0 °F 46% 30.45 in 10.0 mi Calm Calm - N/A   Clear
1:54 PM 48.2 °F - 26.6 °F 43% 30.42 in 10.0 mi Calm Calm - N/A   Clear
2:54 PM 50.0 °F - 26.6 °F 40% 30.41 in 10.0 mi SSW 4.6 mph - N/A   Clear
3:54 PM 48.9 °F - 28.0 °F 44% 30.42 in 10.0 mi South 4.6 mph - N/A   Clear
4:54 PM 48.0 °F - 27.0 °F 44% 30.43 in 10.0 mi Calm Calm - N/A   Clear
5:54 PM 44.6 °F 43.1 °F 28.4 °F 53% 30.41 in 10.0 mi South 3.5 mph - N/A   Mostly Cloudy
6:54 PM 43.0 °F - 30.9 °F 62% 30.44 in 10.0 mi Calm Calm - N/A   Overcast
7:54 PM 45.0 °F - 28.9 °F 53% 30.45 in 10.0 mi Calm Calm - N/A   Overcast
8:54 PM 44.1 °F 42.5 °F 30.0 °F 58% 30.45 in 10.0 mi SSE 3.5 mph - N/A   Overcast
9:01 PM 44.6 °F 43.1 °F 30.2 °F 57% 30.43 in 10.0 mi SSE 3.5 mph - N/A   Overcast
9:54 PM 44.1 °F 41.5 °F 32.0 °F 63% 30.43 in 10.0 mi SSE 4.6 mph - N/A   Overcast
10:54 PM 44.1 °F 41.5 °F 33.1 °F 65% 30.43 in 10.0 mi SSE 4.6 mph - N/A   Overcast
11:54 PM 44.1 °F 41.5 °F 34.0 °F 68% 30.43 in 10.0 mi South 4.6 mph - N/A   Overcast